Regional Weather Roundup
Issued by NWS

Home | Current Version | Previous Version | Text Only | Print | Product List | Glossary On
Versions: 1 2 3 4 5 6 7 8 9 10 11 12 13 14 15 16 17 18 19 20 21 22 23 24 25 26 27 28 29 30 31 32 33 34 35 36 37 38 39 40 41 42 43 44 45 46 47 48 49 50
000
ASUS45 KBOI 230510
RWRID
WEATHER ROUNDUP FOR IDAHO
NATIONAL WEATHER SERVICE BOISE ID
1100 PM MDT TUE JUL 22 2014

NOTE: "FAIR" INDICATES FEW OR NO CLOUDS BELOW 12000 FEET
WITH NO SIGNIFICANT WEATHER AND/OR OBSTRUCTIONS TO VISIBILITY

IDZ012-014-230600-
SOUTHWEST IDAHO


CITY           SKY/WX    TMP DP  RH WIND       PRES   REMARKS
BOISE          LGT RAIN  82  50  32 NW12      29.99R
CALDWELL       CLOUDY    81  48  32 SW5       30.02R
MOUNTAIN HOME  CLOUDY    81  46  29 CALM      29.97S
$$

IDZ016-017-230600-
SOUTHCENTRAL IDAHO


CITY           SKY/WX    TMP DP  RH WIND       PRES   REMARKS
BURLEY         CLEAR     67  50  54 E3        30.03F
JEROME         PTCLDY    69  51  52 CALM      30.02F
TWIN FALLS     PTCLDY    70  52  52 SW6       30.03F
$$

IDZ019>023-230600-
SOUTHEAST IDAHO


CITY           SKY/WX    TMP DP  RH WIND       PRES   REMARKS
IDAHO FALLS    PTCLDY    70  49  47 NE3       30.15F
POCATELLO      CLEAR     66  51  58 E3        30.11F
REXBURG        PTCLDY    73  47  39 E7        30.17F
$$

IDZ006-010-011-018-031-032-230600-
CENTRAL IDAHO MOUNTAINS


CITY           SKY/WX    TMP DP  RH WIND       PRES   REMARKS
MCCALL         MOCLDY    67  49  52 NE7       30.15F
HAILEY         MOCLDY    66  48  52 NW6       30.17S
STANLEY          N/A     57  42  57 S5        30.27F
SALMON         CLOUDY    70  46  43 SE5       30.10S
CHALLIS        MOCLDY    66  41  40 VRB3      30.16R
$$

IDZ002-004-006-007-026-230600-
NORTHERN IDAHO


CITY           SKY/WX    TMP DP  RH WIND       PRES   REMARKS
LEWISTON       MOCLDY    72  60  66 N8        30.09R
LOWELL           N/A     74  59  59 CALM      30.01S
COEUR D`ALENE  CLOUDY    66  55  68 E12       30.10S
MULLAN PASS    LGT RAIN  57  49  74 VRB7      30.33R
$$



USA.gov is the U.S. government's official web portal to all federal, state and local government web resources and services.